Theta_e
312 313 315 317 317 316 316 314 314 316 317 318 319 322 325 324 323 320 318 319 319 320 321 320 319 319 317 317 317 317 318 318 317 317 317 318 317 316 317 317 317 318 317 317 316 316 315 316 317 317 318 318 317 318 318 317 318 320 319 321 320 319 319 316 313 316 319 320 322 321 322 322 320 320 323 322 321 319 315 317 316 316 323 328 329 335 339
312 313 315 317 317 316 316 315 314 315 317 318 318 323 325 324 321 317 318 319 319 321 321 321 320 318 317 318 318 317 317 317 318 318 317 317 318 317 318 317 317 318 317 317 318 317 315 316 317 318 318 317 317 318 317 318 319 318 319 322 319 316 318 316 313 314 315 315 317 318 319 320 319 320 324 322 322 323 321 321 320 317 318 322 329 336 338
311 312 314 317 318 316 315 314 314 315 317 318 320 324 326 325 323 321 318 318 319 319 320 320 320 319 318 318 317 317 317 317 317 317 317 317 318 318 318 317 316 317 317 317 318 318 316 316 317 318 317 316 316 317 316 318 316 317 324 328 321 317 319 319 315 313 314 315 315 314 314 317 320 320 322 322 322 323 319 317 316 315 316 321 330 336 337
310 312 314 317 318 316 315 315 314 314 316 319 321 325 327 325 324 322 320 318 319 318 318 318 318 319 320 319 317 318 317 317 316 317 317 317 317 318 318 317 317 317 317 317 318 317 317 318 318 318 318 317 316 316 316 316 316 325 333 327 317 319 321 322 321 317 316 317 318 319 317 316 315 317 319 320 321 323 320 316 315 317 322 329 334 337 335
310 312 314 316 318 317 315 315 313 315 317 318 322 327 329 324 321 321 322 321 320 319 319 318 318 318 320 319 317 317 317 317 317 317 317 317 317 318 318 317 318 318 319 318 318 317 317 317 317 317 318 317 316 316 316 315 318 328 330 318 315 320 318 320 323 319 319 319 319 320 319 316 314 315 317 318 321 322 318 316 317 319 324 331 339 339 334
310 312 314 316 318 317 315 315 314 315 316 319 324 328 326 321 319 318 321 321 321 319 318 319 318 318 318 317 317 318 317 317 318 317 317 317 317 319 320 318 318 319 319 321 322 321 319 318 318 318 319 318 316 315 316 316 316 320 320 315 318 320 317 318 319 317 319 320 318 319 319 317 318 317 317 317 319 319 317 317 320 320 324 333 342 339 336
310 311 313 315 317 317 316 315 314 314 317 322 326 326 322 322 321 318 318 319 319 318 316 318 318 317 318 318 317 318 318 317 316 316 318 319 316 318 321 319 318 318 318 321 325 325 323 323 323 321 320 319 317 316 317 316 316 316 317 319 319 317 317 320 318 315 318 318 318 319 318 316 317 317 317 317 318 318 318 320 321 324 330 337 342 339 338
310 311 313 314 316 317 316 315 314 315 319 325 327 322 321 324 322 322 323 320 318 318 318 319 320 318 320 320 317 318 319 317 316 316 318 321 319 318 320 319 318 319 319 321 325 324 323 324 324 322 321 321 319 319 320 318 318 317 317 319 319 317 317 321 320 315 315 317 317 318 317 316 315 315 317 317 316 317 319 321 322 327 333 338 340 338 338
310 311 312 314 315 316 316 316 315 317 324 329 328 321 321 325 323 323 326 322 317 318 318 319 322 322 321 320 318 318 318 316 317 317 316 318 319 319 319 319 318 319 321 322 323 321 321 322 321 320 321 320 319 321 321 320 320 320 319 319 319 318 317 319 319 315 314 316 316 315 316 315 313 313 315 315 314 315 318 322 323 327 333 337 337 337 337
309 311 312 313 315 316 316 316 316 318 323 329 330 325 321 325 326 325 326 323 318 319 319 320 322 320 319 318 318 318 317 316 319 321 317 315 317 317 317 318 318 320 322 323 321 319 319 320 319 319 319 318 318 319 320 318 319 320 320 320 320 319 318 317 317 315 313 315 315 315 314 312 310 312 315 315 316 315 316 321 324 328 335 337 336 336 337
309 310 312 313 314 315 316 316 316 318 321 324 327 327 321 323 327 327 327 325 320 319 321 320 320 319 318 318 318 317 318 318 319 321 319 316 315 316 317 318 320 321 321 321 319 317 318 317 317 317 317 317 317 317 317 318 318 318 318 319 320 320 319 318 319 316 313 314 315 315 312 310 311 315 316 316 317 316 316 320 325 328 333 336 336 336 335
308 310 311 312 313 315 315 315 315 317 320 322 325 327 322 322 327 328 327 325 321 320 321 319 318 319 317 318 319 318 318 318 318 319 319 317 316 317 318 319 321 320 318 317 316 315 316 316 315 315 315 316 316 317 317 317 316 316 317 317 318 320 320 319 319 316 314 314 314 314 312 313 316 319 320 318 318 316 318 325 329 329 332 335 336 335 333
308 309 311 312 313 314 315 315 315 316 320 323 326 327 323 323 326 328 327 327 324 321 320 317 316 318 319 319 319 318 318 318 317 318 318 318 318 318 317 318 318 317 315 315 315 316 317 317 316 316 316 316 315 315 316 316 316 316 316 316 317 319 321 319 317 316 316 314 313 314 316 319 320 321 321 321 322 323 324 327 329 329 331 333 335 334 332
307 308 310 311 312 313 314 315 315 315 317 320 324 326 324 323 326 328 329 330 327 319 318 321 320 319 320 319 319 319 319 318 318 320 319 318 319 318 316 316 316 314 315 315 316 317 319 320 318 317 317 316 316 316 316 315 316 317 317 317 316 318 320 319 316 317 317 313 312 316 319 319 320 321 322 321 323 324 325 325 327 330 330 331 333 332 331
306 308 310 311 311 313 313 314 315 315 316 318 323 327 325 323 325 328 329 330 327 320 320 324 322 319 320 319 319 321 321 320 321 321 318 317 320 319 316 316 316 315 315 316 318 319 320 320 318 317 318 317 317 318 318 318 318 316 316 318 317 317 320 321 318 317 317 314 312 315 316 316 318 321 322 320 319 320 323 324 325 328 329 330 331 330 329
306 307 309 311 311 312 313 313 314 315 315 316 320 326 327 322 324 328 329 329 327 322 320 320 318 317 320 319 318 319 321 323 323 322 320 321 320 318 317 317 317 316 316 317 319 319 319 320 317 317 321 322 321 321 321 320 320 318 316 317 318 317 319 321 320 318 315 314 313 314 315 317 321 322 322 320 319 321 322 321 322 325 327 327 329 328 327
306 307 309 310 311 312 312 312 313 313 314 314 316 323 328 324 322 327 329 329 326 321 317 316 315 317 321 322 320 319 320 322 321 320 323 324 322 319 319 318 317 317 317 318 320 319 318 319 317 315 319 324 323 321 321 321 321 321 319 317 317 318 318 318 318 317 315 315 314 313 315 320 323 321 321 320 321 321 319 317 319 323 325 324 326 325 324
306 306 308 310 310 311 312 312 312 312 313 313 314 321 328 324 321 324 327 327 326 323 318 315 316 319 322 323 322 320 320 320 320 320 322 323 321 320 320 319 318 319 318 317 319 320 318 318 317 315 317 322 322 320 319 319 319 322 322 319 317 317 318 317 316 315 314 315 314 314 318 323 323 320 320 319 318 316 315 316 320 324 324 323 323 322 322
306 306 308 309 309 310 311 312 313 312 312 312 313 320 327 325 322 323 324 324 325 325 321 316 316 318 319 318 319 319 318 318 319 320 321 322 322 321 320 319 318 319 319 319 319 320 318 317 319 318 317 320 322 320 318 318 319 321 323 321 318 318 318 317 316 315 314 314 314 315 320 325 322 319 319 316 315 316 318 321 324 323 322 322 321 321 322
306 306 307 307 308 309 310 312 313 312 312 312 312 317 325 327 324 322 322 323 324 325 323 319 317 318 317 316 318 320 319 320 320 320 320 322 323 321 320 321 319 318 320 321 320 320 319 318 320 321 318 319 322 321 318 318 320 322 323 321 319 319 318 316 316 316 315 314 313 315 320 324 322 319 318 317 319 322 324 325 323 321 321 321 321 321 321
306 306 306 307 307 308 309 311 313 313 312 311 311 316 324 327 326 323 321 321 323 325 325 322 318 318 318 318 319 319 320 321 322 322 321 322 323 321 321 323 322 321 322 322 321 322 321 319 320 321 319 319 321 320 319 318 319 321 322 321 321 321 318 317 318 318 316 315 316 318 321 322 320 320 321 322 323 325 325 323 322 321 321 320 320 321 321
305 306 306 306 306 308 309 310 312 313 313 311 311 317 325 327 325 323 321 322 323 323 323 322 319 317 318 318 318 318 318 319 321 322 321 322 323 321 320 321 322 322 322 322 321 322 322 322 322 321 320 323 324 322 320 318 317 320 321 320 319 321 322 322 322 321 320 320 321 322 322 322 321 322 324 324 324 323 323 322 321 320 320 320 321 321 321
305 306 306 305 306 307 308 310 311 313 314 312 311 316 322 324 323 322 322 324 325 323 322 323 321 319 318 316 316 317 317 317 318 320 320 320 321 321 320 321 322 322 322 321 322 322 322 322 323 322 321 323 324 323 323 321 319 321 323 320 318 320 323 324 323 322 322 322 323 322 321 321 321 321 322 322 322 322 321 321 320 320 319 319 320 321 321
305 305 305 305 306 307 309 310 311 312 314 313 311 313 318 323 324 323 322 324 325 324 323 323 322 321 321 319 318 317 317 317 317 318 320 320 320 321 323 322 322 323 323 323 323 322 321 321 321 321 322 322 322 321 323 323 322 322 324 323 320 319 320 321 321 321 321 322 322 322 321 321 320 320 321 320 320 320 319 319 320 320 320 319 320 320 321
305 305 305 305 307 309 310 311 312 312 313 314 312 315 321 325 324 322 322 324 325 324 324 323 321 321 320 319 318 318 318 318 318 318 319 319 319 320 322 323 323 323 323 324 323 322 322 322 321 322 323 323 322 321 322 322 321 321 323 324 325 324 321 319 320 320 320 321 322 322 321 321 320 319 319 319 319 319 318 319 320 320 319 320 319 318 318
305 305 305 306 309 311 312 313 313 312 313 313 312 316 322 325 323 321 323 325 325 324 324 323 323 322 320 319 319 320 319 318 318 318 319 319 319 319 320 322 323 323 323 322 321 321 322 322 321 322 323 322 321 321 322 322 321 321 322 323 323 323 322 320 319 318 318 320 321 321 321 321 320 319 318 318 319 319 318 319 319 319 319 318 318 317 317
305 305 305 308 311 312 312 313 313 312 314 313 312 315 320 323 322 322 324 324 325 325 325 324 324 323 321 320 320 319 318 317 318 318 319 319 319 319 320 320 320 322 323 323 322 322 322 322 322 322 322 322 321 321 321 321 321 322 322 322 321 322 324 323 322 321 321 321 322 322 321 321 320 319 318 318 318 319 318 318 318 317 317 317 317 316 316
304 305 307 311 313 313 312 312 312 313 314 313 313 316 320 322 322 322 322 322 324 325 324 323 322 322 322 321 319 319 319 319 318 319 320 320 319 319 320 320 321 322 323 323 323 323 322 323 323 322 321 322 321 321 321 321 321 321 322 321 320 322 323 323 324 324 323 322 323 323 323 323 321 319 318 318 318 318 318 317 317 316 316 317 317 316 316
305 307 311 313 315 314 313 313 314 314 313 313 315 319 323 323 322 322 321 321 322 322 322 323 323 323 323 321 319 319 320 320 320 320 320 320 320 321 321 322 323 323 323 323 323 323 322 321 321 320 320 321 321 320 321 321 321 322 322 321 320 321 321 322 323 323 322 322 321 322 323 323 321 319 319 318 318 317 317 317 317 316 316 316 316 315 315
306 310 314 315 315 314 314 314 313 314 314 315 318 323 325 324 323 321 320 320 321 321 322 324 324 324 323 321 320 321 321 320 321 322 322 322 323 323 323 323 323 323 323 323 322 322 321 320 320 320 320 320 320 320 320 320 321 322 322 320 320 320 320 320 321 321 321 321 321 321 321 321 320 319 318 318 318 317 317 317 316 316 316 316 315 315 315
310 314 315 315 314 314 314 314 313 314 316 319 322 324 325 326 324 320 318 319 321 321 322 324 324 323 322 321 321 321 322 321 322 323 323 323 323 322 322 322 322 323 323 323 322 321 320 320 319 320 320 320 319 319 320 320 321 321 321 320 321 320 320 320 319 319 320 320 320 320 320 320 320 320 319 318 318 317 317 317 317 317 316 315 315 315 314
312 315 315 315 315 315 315 315 315 316 318 319 321 321 321 321 320 318 317 318 321 322 323 324 325 324 323 323 322 321 321 322 322 322 321 321 322 322 321 320 321 322 321 321 321 321 320 320 320 319 320 319 318 319 319 319 320 320 319 319 319 319 319 319 319 319 319 320 320 321 321 320 320 321 321 319 318 318 317 316 317 317 317 315 315 315 314
314 315 315 316 316 316 316 316 316 317 317 318 318 319 318 317 317 317 317 319 322 322 322 323 325 325 324 324 324 323 321 322 322 321 321 321 321 321 320 320 321 321 320 319 320 320 319 319 320 320 319 318 318 319 319 319 319 320 319 318 319 319 319 319 319 319 319 320 320 321 321 320 321 321 321 318 317 317 317 316 316 316 315 315 314 314 313
314 315 316 316 317 317 317 317 317 317 318 320 321 321 319 317 316 316 318 321 323 323 323 324 324 324 323 324 324 323 321 321 321 321 321 322 321 320 321 321 320 320 320 319 320 320 319 319 319 319 319 318 318 318 319 319 319 319 318 318 318 318 318 318 319 319 319 319 319 319 320 320 321 320 319 317 317 317 316 316 316 315 315 314 314 314 313
315 315 316 317 317 318 318 318 318 319 322 324 323 321 319 317 316 316 318 321 324 325 325 324 322 323 324 323 324 324 321 319 322 322 321 321 320 320 321 321 320 320 319 319 319 319 319 319 318 318 319 319 318 318 318 318 318 318 317 317 318 319 319 319 318 318 319 319 319 318 318 318 318 318 317 317 317 316 316 316 316 316 315 315 314 314 314
314 316 317 317 317 318 320 320 320 321 324 324 322 320 318 317 317 317 319 321 322 324 326 324 322 324 325 323 322 323 321 319 321 321 319 320 321 320 320 321 321 320 319 318 319 320 320 318 318 318 319 319 318 318 318 318 319 319 318 318 319 319 319 319 319 319 319 319 319 319 319 318 318 318 317 316 316 316 316 316 316 316 316 315 315 314 314
315 316 317 318 319 321 322 323 323 322 321 320 318 317 317 317 319 321 321 321 322 323 323 323 323 324 323 321 321 321 320 319 320 319 319 320 320 319 319 319 320 320 319 319 319 319 319 318 317 318 318 318 318 318 318 318 318 318 318 318 318 317 317 317 318 318 319 319 319 319 319 318 318 318 317 317 316 315 315 315 316 315 315 315 315 314 314
316 316 318 319 321 323 324 324 322 319 318 318 318 319 320 321 322 324 323 322 322 322 321 322 324 324 322 321 322 321 320 319 318 319 320 320 318 317 318 319 318 318 318 318 319 318 318 317 317 317 318 318 318 317 317 317 317 317 317 318 317 317 316 316 316 317 318 319 319 319 319 318 318 318 317 317 317 316 316 316 315 315 315 315 315 314 314
317 319 321 322 322 322 323 322 319 318 318 320 321 322 324 323 323 324 324 323 323 323 321 323 325 324 322 320 320 320 319 319 318 319 319 318 317 317 317 317 318 318 317 317 317 318 317 317 318 318 318 318 317 318 317 317 316 316 316 317 317 317 317 316 316 317 317 317 316 317 318 319 319 319 318 317 317 317 317 316 315 315 315 315 315 314 314
319 322 323 322 321 322 322 320 318 319 320 322 322 323 324 324 323 324 324 323 323 324 324 323 323 323 321 320 321 321 320 319 319 318 317 317 317 316 316 317 318 317 316 317 317 317 317 316 316 316 317 317 317 317 316 316 316 315 315 316 317 317 317 316 316 316 316 316 315 315 316 317 317 318 318 318 318 318 317 316 317 317 316 315 315 314 313
320 321 322 322 321 321 321 320 320 321 322 322 323 323 323 323 324 324 324 324 324 324 324 322 321 322 322 322 321 322 321 320 319 318 317 318 318 316 316 318 318 316 316 317 317 316 317 316 315 316 318 318 317 316 316 316 316 315 315 316 316 316 316 316 315 315 316 316 315 314 315 315 315 316 316 317 317 317 317 317 317 315 314 314 314 314 313
314 315 319 320 320 321 321 321 322 323 322 323 324 324 322 323 326 327 326 324 323 322 323 322 321 321 322 321 319 320 320 319 319 318 318 319 318 317 316 318 317 317 317 317 316 317 317 316 315 316 316 316 315 315 315 315 315 314 314 315 316 315 315 315 315 315 314 314 314 314 314 315 315 315 315 316 316 316 316 316 316 315 314 314 314 313 312
312 314 318 320 320 321 322 322 322 322 322 322 322 322 322 323 325 326 325 324 322 322 322 322 320 320 321 320 320 321 321 319 318 318 319 319 318 317 317 318 318 317 317 315 316 316 316 316 316 317 315 315 315 315 314 314 314 313 313 314 314 314 314 313 313 313 313 313 313 313 313 313 314 314 314 314 315 315 315 315 315 315 314 313 313 313 312
317 319 320 321 320 321 321 321 321 324 324 322 321 321 323 324 325 324 323 323 323 323 322 321 320 320 320 320 321 322 321 319 318 318 318 318 318 318 318 318 317 316 316 317 316 316 315 316 317 317 315 315 314 314 314 314 313 312 311 312 311 311 311 311 311 312 312 312 312 312 312 313 313 313 312 312 313 314 315 316 316 314 313 312 312 313 313
321 319 319 320 321 321 321 322 322 323 324 323 320 321 323 325 325 325 324 322 322 323 322 321 320 320 319 319 320 320 318 318 319 319 319 318 318 318 317 317 316 316 316 317 316 315 315 315 316 315 315 314 313 313 313 312 311 310 310 310 309 310 310 309 309 310 310 311 311 311 311 311 312 312 312 312 312 313 314 315 316 315 313 312 312 313 313
321 319 318 320 321 320 320 320 319 320 322 323 322 322 324 323 324 326 325 323 322 322 321 320 320 319 318 318 319 318 318 318 318 319 318 318 317 316 315 316 317 318 317 316 314 314 314 315 315 314 313 312 311 311 310 309 308 308 308 308 308 308 308 308 308 309 309 310 310 310 310 310 311 311 311 311 312 312 313 313 315 315 314 312 312 313 313
320 317 316 318 319 318 318 319 318 319 322 325 324 323 323 323 324 325 324 322 322 321 320 319 319 319 318 317 317 316 316 317 317 317 317 316 316 315 315 315 316 316 315 314 314 314 314 315 314 312 310 310 309 309 308 308 307 307 307 307 307 307 306 307 307 307 308 308 309 308 308 309 310 311 311 311 311 311 312 313 314 315 314 312 311 311 312
319 318 317 318 319 319 318 320 321 322 324 324 323 321 322 323 324 324 322 322 321 320 319 319 319 318 317 316 315 313 314 315 314 314 314 314 314 315 316 315 315 315 314 314 315 315 314 313 311 309 308 308 308 307 307 307 306 306 306 306 306 305 306 306 307 306 306 307 307 307 308 308 309 309 310 311 311 311 311 312 314 314 313 311 309 310 312
318 319 319 319 319 318 318 320 324 326 326 325 322 321 322 323 323 323 322 322 321 319 318 319 318 317 316 315 313 312 313 313 313 312 313 313 314 315 314 313 314 314 314 314 314 314 312 310 309 308 308 307 307 307 306 306 306 307 306 306 305 305 305 306 306 306 305 305 306 307 307 307 307 308 309 310 310 311 311 311 312 313 313 311 310 310 311
318 318 318 318 318 319 319 319 323 326 326 325 323 323 323 323 322 323 323 321 320 320 321 321 318 316 315 314 312 311 312 313 312 312 312 312 313 314 313 313 313 314 314 313 312 311 309 307 307 308 307 306 306 307 307 307 307 307 307 306 306 306 306 306 306 305 305 304 304 305 305 305 306 307 307 307 309 310 311 311 311 312 312 310 309 310 310
317 317 317 317 318 319 319 320 323 326 326 325 323 323 324 323 322 322 322 321 320 322 323 322 318 316 314 312 311 311 312 312 312 312 311 311 312 313 314 314 314 313 312 310 309 308 307 307 307 307 306 306 307 307 307 307 307 307 306 306 306 306 306 305 305 305 305 305 305 305 305 305 305 306 306 306 306 308 311 311 311 311 311 309 308 308 309
317 317 317 317 317 318 320 323 325 325 325 325 325 324 324 324 324 325 323 322 322 323 322 321 318 316 314 313 313 313 313 313 312 311 311 313 314 314 313 313 312 311 309 308 307 307 307 307 306 306 307 307 307 307 307 307 306 306 305 305 306 306 306 305 305 305 306 306 305 305 305 305 306 306 307 306 306 307 310 311 310 310 311 311 309 308 309
Wind_Speed
27 27 26 27 28 30 32 33 33 34 33 26 21 16 8 6 1 4 2 3 5 7 5 1 1 3 3 2 1 2 3 4 5 3 2 4 2 1 0 1 3 2 1 2 4 4 2 4 4 4 4 4 7 4 3 5 6 4 6 6 5 3 3 4 2 0 1 3 4 2 4 5 6 6 5 7 9 9 6 3 4 2 5 8 6 6 6
27 26 26 26 28 29 31 32 32 31 30 26 19 11 6 5 3 4 4 3 7 7 3 1 1 3 1 1 2 1 2 5 7 6 5 5 4 3 2 1 1 2 2 2 1 2 3 1 1 2 2 3 5 5 5 7 6 5 7 7 5 4 3 3 2 2 5 5 3 4 6 5 5 7 5 7 7 4 6 5 4 4 2 5 5 4 6
27 26 25 26 27 29 30 31 30 29 28 25 15 7 6 6 5 0 3 5 7 3 3 3 2 3 0 1 2 1 2 2 5 6 5 6 6 5 3 2 2 1 0 3 2 2 1 3 2 1 2 4 3 4 5 7 8 8 7 9 6 4 3 2 3 4 5 4 2 4 7 5 4 6 5 5 5 6 6 4 3 4 4 2 7 7 7
27 26 25 26 27 29 30 30 29 26 28 27 16 8 7 4 3 2 1 3 2 1 2 3 3 2 0 2 3 3 2 3 1 4 4 3 5 5 3 3 4 1 2 4 2 3 3 1 2 3 3 4 2 3 3 5 8 9 10 9 5 4 4 1 1 2 1 0 4 5 3 5 8 10 7 4 5 7 5 4 3 2 4 6 9 13 14
27 25 24 25 26 28 30 30 28 23 24 28 18 7 7 4 2 3 2 2 1 2 1 3 3 2 2 1 2 3 3 2 2 0 3 3 4 4 3 5 5 2 3 4 3 3 4 3 4 5 3 5 4 1 2 3 5 9 8 5 3 4 4 3 4 3 3 2 5 5 4 5 11 15 8 3 5 7 6 5 4 2 5 5 9 16 17
26 25 24 24 25 28 29 30 30 23 20 24 17 6 5 4 2 4 3 3 3 3 4 5 4 4 3 2 3 3 4 4 3 2 2 2 3 2 1 3 4 4 4 4 3 2 2 3 2 2 3 2 4 3 1 3 1 5 4 3 3 4 6 4 5 7 5 2 5 5 5 8 2 5 3 1 5 7 7 8 9 5 4 8 11 13 14
25 24 23 24 24 26 28 29 30 24 20 21 14 5 6 6 2 3 3 2 3 3 2 3 3 6 4 2 3 5 5 5 4 4 4 2 1 3 3 2 4 5 4 4 5 4 2 1 2 1 1 2 3 3 2 3 1 3 2 3 2 2 4 5 4 4 4 3 5 5 5 6 4 3 2 1 4 6 8 10 9 2 10 14 14 13 12
24 23 23 23 23 25 27 28 29 26 22 20 11 4 6 7 4 4 4 2 2 1 1 2 1 3 1 1 4 5 6 6 5 4 7 5 4 2 3 3 4 6 4 3 3 3 3 2 3 2 3 3 2 1 2 2 1 2 2 2 1 1 2 3 5 7 5 5 5 5 6 5 4 4 3 1 5 7 5 6 5 2 11 15 16 15 11
23 23 22 21 21 23 24 26 29 26 22 17 10 7 9 10 8 7 6 3 2 3 1 2 1 2 2 2 5 4 5 6 3 2 5 7 6 6 5 3 2 4 4 5 5 5 3 4 5 4 3 4 3 2 2 3 3 2 1 1 1 2 2 0 2 5 6 7 8 8 8 6 7 10 6 4 8 7 4 5 5 5 12 15 15 13 9
21 22 21 20 20 21 22 24 26 26 23 17 9 8 13 13 10 9 7 3 1 3 1 1 1 3 4 4 4 4 5 5 3 2 3 3 4 6 7 6 3 1 2 4 6 6 5 5 6 5 4 4 3 1 1 2 4 4 3 2 1 4 4 3 3 3 7 9 8 7 7 7 7 10 9 8 8 7 6 7 3 6 13 14 10 9 10
20 21 20 19 18 19 20 22 23 23 24 19 10 8 14 13 9 7 6 4 1 2 1 4 3 2 2 2 1 2 4 5 3 3 2 4 4 4 4 5 3 2 3 4 5 6 6 6 6 6 5 4 4 3 2 3 4 4 3 3 3 4 4 5 3 2 7 10 6 4 6 7 4 4 7 11 11 10 10 6 5 5 8 11 9 11 14
19 20 20 18 17 17 18 19 20 20 21 19 12 9 15 15 9 5 5 5 3 1 2 4 4 3 3 3 4 5 5 5 4 3 3 4 4 4 5 4 3 3 4 4 4 5 6 6 6 7 7 6 6 6 6 6 5 4 4 5 5 3 2 4 4 4 7 7 3 5 6 4 1 4 3 3 7 8 5 7 9 6 9 14 14 14 15
18 19 19 18 15 15 16 17 19 18 17 18 15 11 15 17 10 4 5 5 3 3 3 3 3 4 5 5 6 5 4 5 5 3 3 3 3 4 6 4 3 4 4 4 3 4 5 4 4 5 6 5 6 7 8 8 6 4 5 6 6 4 3 4 5 5 5 5 5 5 2 1 3 5 5 4 4 4 6 10 9 5 9 14 15 14 13
17 18 18 17 15 13 14 15 17 17 15 16 15 12 13 16 10 5 5 5 4 4 3 2 3 4 4 5 3 1 2 3 2 1 2 2 2 5 5 3 3 3 3 3 1 3 4 2 3 4 4 4 5 5 5 5 4 4 5 4 4 5 4 3 4 5 5 7 7 4 1 2 3 4 3 2 3 4 5 6 6 5 8 11 13 14 13
16 17 17 17 15 13 13 13 14 16 15 15 13 10 12 15 12 7 4 5 5 3 3 3 4 4 3 3 2 3 2 2 2 3 2 2 1 4 3 3 3 2 3 2 2 3 3 3 4 4 3 4 4 4 4 3 3 3 5 4 4 5 4 3 4 4 5 6 7 6 5 5 6 7 6 4 2 1 2 5 7 8 9 10 12 14 14
15 17 17 17 15 13 12 12 12 14 15 15 13 10 11 15 14 10 6 5 5 3 4 4 4 3 1 1 1 3 2 1 1 1 2 2 1 2 1 1 2 3 4 3 3 3 4 5 5 4 3 4 3 2 3 4 5 3 4 5 5 7 5 3 4 5 5 5 6 6 5 3 2 8 8 3 2 5 4 4 6 8 10 12 12 13 13
14 17 16 16 15 14 12 11 11 12 13 14 13 10 10 14 15 12 7 5 5 3 5 5 4 3 1 2 1 1 3 2 2 2 1 1 1 1 1 0 1 1 3 4 4 4 5 5 5 5 4 4 3 1 2 3 5 5 4 5 7 7 5 5 6 6 6 6 5 5 3 2 6 10 8 5 7 7 3 5 6 10 11 11 11 11 9
13 15 16 15 15 14 12 10 10 10 10 11 11 8 7 11 15 13 7 5 5 3 5 6 5 3 2 3 2 2 4 4 2 2 2 1 1 0 2 2 3 2 1 3 4 4 6 6 5 6 3 2 1 1 1 1 4 6 6 5 5 6 5 6 7 7 7 6 6 4 2 5 8 10 8 7 7 5 5 3 4 10 11 8 9 9 6
12 14 15 15 14 14 12 10 9 9 9 9 9 7 5 8 13 13 8 4 4 4 4 6 5 4 3 3 3 1 1 2 2 3 3 1 0 1 1 2 2 1 1 3 4 4 5 5 4 4 4 1 1 4 4 3 3 3 6 6 5 5 6 6 6 7 6 6 6 4 3 5 6 8 9 6 3 3 2 3 4 7 9 7 6 6 9
12 14 14 14 14 13 12 10 8 7 8 9 9 7 5 5 9 11 8 5 5 5 3 5 5 5 3 3 3 2 1 1 2 4 4 2 2 3 5 3 1 2 2 3 4 4 5 5 3 3 5 2 1 4 4 4 4 3 4 6 5 3 4 6 6 6 6 6 7 5 3 5 7 8 6 2 1 2 5 6 6 6 6 5 6 9 9
11 13 14 14 14 13 12 10 8 6 6 7 8 7 6 4 5 8 8 6 5 4 3 6 8 7 4 3 4 4 3 3 3 4 4 3 1 2 4 1 0 3 2 1 4 3 3 5 4 2 5 4 2 2 4 5 5 5 5 5 4 4 4 4 3 3 4 5 4 1 2 5 7 6 5 5 5 5 6 6 7 7 5 4 6 9 8
11 12 13 14 14 13 12 10 7 5 5 5 5 6 7 5 5 8 9 7 5 6 7 9 8 6 5 5 4 4 5 5 5 3 4 3 0 1 3 2 2 3 3 3 5 3 2 4 4 3 5 4 2 3 6 6 4 4 6 4 3 2 1 1 1 3 2 1 2 2 3 6 7 6 7 10 9 6 5 6 6 6 6 5 6 9 9
11 12 13 15 15 14 12 10 8 5 3 4 4 4 7 8 8 10 11 7 7 8 10 10 7 5 5 4 2 2 4 4 3 2 3 4 3 1 2 2 2 2 3 3 4 4 4 3 2 4 5 3 2 5 6 5 5 1 2 5 4 1 1 1 1 1 1 3 4 5 4 5 8 8 8 9 8 5 5 4 5 6 6 4 5 9 10
11 12 14 15 16 14 12 10 8 4 2 3 3 3 6 8 8 10 10 6 5 5 5 6 4 1 1 1 1 2 3 3 3 1 1 3 4 2 2 4 3 2 2 4 4 3 4 4 3 5 5 3 3 4 4 3 4 6 4 4 5 4 3 3 3 2 2 3 6 7 7 6 8 8 8 8 7 5 3 2 3 8 8 5 5 8 9
11 12 15 16 16 14 12 10 8 4 2 2 2 2 6 7 7 9 8 5 4 4 3 2 1 2 3 2 2 3 2 0 2 3 3 4 4 3 1 1 2 2 2 3 3 3 3 4 3 4 4 3 3 3 1 0 2 5 6 4 3 4 5 5 5 6 4 2 5 6 5 6 6 6 6 7 6 5 4 4 5 8 8 7 7 6 6
11 13 16 16 15 13 12 10 8 4 2 3 2 1 5 9 9 7 7 6 5 4 3 2 1 1 2 2 1 1 2 2 3 4 4 5 5 4 3 1 0 2 3 3 3 3 4 4 3 3 3 2 2 3 3 1 2 5 4 2 4 7 9 6 4 7 6 4 6 6 4 4 5 6 6 7 9 9 8 7 6 7 7 6 5 3 3
12 14 16 15 14 12 10 9 7 4 2 3 2 1 5 8 7 5 6 7 5 2 2 2 1 1 2 2 2 2 3 4 5 5 5 5 5 5 4 3 3 3 2 1 2 3 3 4 4 3 3 2 2 4 5 3 3 5 5 1 3 3 6 7 6 4 3 2 1 3 3 3 5 6 7 6 10 12 11 9 7 7 6 6 5 4 3
13 15 15 13 11 10 9 8 6 4 3 3 1 2 5 6 5 3 3 5 5 3 3 4 4 3 4 3 1 1 2 2 3 4 5 5 5 5 5 4 2 1 1 2 3 3 4 4 3 1 2 3 3 5 5 4 4 5 4 1 1 0 3 5 6 3 2 4 7 5 3 2 1 2 4 3 5 8 9 9 8 6 6 6 5 5 5
14 14 12 10 10 10 9 7 6 4 4 3 2 4 6 6 3 2 1 2 5 5 4 5 5 4 4 3 2 2 1 1 4 5 3 3 4 4 3 3 2 2 2 1 3 4 4 4 1 0 1 3 4 5 5 5 6 5 2 2 0 3 4 5 6 3 2 1 4 5 4 2 1 1 2 3 4 5 7 9 7 7 8 9 8 6 5
14 12 9 9 10 9 8 8 6 3 3 3 3 5 5 4 2 2 1 3 6 6 4 4 4 2 3 4 2 2 1 1 2 3 3 4 5 5 6 4 2 1 1 0 1 1 2 2 1 1 2 2 3 4 4 5 6 3 3 4 2 3 4 6 6 5 2 1 1 3 5 3 1 2 3 4 5 5 5 7 8 8 9 9 8 9 9
12 10 8 9 9 8 8 6 2 3 4 4 4 5 2 2 3 4 3 3 5 5 4 4 3 2 2 2 1 1 2 1 1 4 5 4 5 5 3 1 0 1 1 1 1 1 2 2 1 1 2 2 3 4 4 5 6 3 2 3 3 3 4 6 7 7 6 4 2 2 5 5 3 3 4 6 7 7 6 6 8 9 8 7 5 5 9
11 9 9 9 7 7 6 2 3 6 3 2 4 3 3 2 2 3 3 2 3 5 4 4 3 2 1 1 2 2 2 1 2 2 1 1 1 2 2 3 1 2 1 2 2 2 2 2 3 2 2 3 3 4 4 5 7 6 5 4 4 4 4 5 6 6 6 5 4 4 5 4 3 5 6 7 9 9 8 8 8 11 12 9 7 5 5
9 8 8 5 2 1 0 3 5 5 2 2 4 3 2 3 2 1 2 3 5 6 5 4 4 3 1 1 2 1 2 2 2 1 1 1 1 2 2 2 1 1 1 1 2 1 1 1 3 2 2 3 4 4 5 6 7 6 6 6 6 5 4 4 5 5 4 6 7 6 5 4 5 8 9 8 8 9 9 9 9 10 11 10 6 4 4
7 6 3 1 4 4 5 5 4 3 1 2 2 2 1 2 2 0 1 3 5 6 4 3 4 3 1 2 2 3 5 3 1 0 1 2 2 2 1 1 1 1 1 1 2 1 1 1 2 2 2 2 4 4 5 7 7 6 5 4 4 4 4 5 6 5 4 6 7 6 6 6 8 9 10 8 8 9 9 10 9 8 8 7 6 6 7
5 2 1 5 6 4 2 1 1 3 5 4 1 2 2 3 3 2 1 2 4 4 2 3 4 3 2 1 2 2 5 3 1 1 2 2 1 2 1 1 1 1 0 1 2 3 2 1 1 2 2 3 4 5 5 7 6 4 4 3 3 4 5 5 5 6 5 6 7 7 6 7 8 9 9 8 9 10 10 10 10 9 8 7 8 9 10
3 1 4 5 4 2 3 4 4 4 3 2 2 3 5 4 4 4 3 4 6 4 3 3 3 2 3 2 1 1 4 3 1 2 1 1 1 2 2 2 2 1 1 1 2 3 1 0 1 2 2 3 4 4 4 5 4 2 3 2 2 4 5 4 5 6 6 6 6 6 6 7 8 8 8 8 9 9 10 11 11 11 10 9 9 9 9
2 4 5 3 2 4 5 4 2 0 2 4 4 5 4 3 3 4 5 6 6 5 3 4 4 3 4 3 2 1 3 2 0 1 1 1 2 2 2 2 2 0 2 2 1 1 2 2 3 4 3 1 2 6 7 7 6 5 4 5 7 7 8 8 7 8 7 5 6 6 6 7 7 7 7 8 9 11 11 11 11 11 11 10 9 9 9
2 3 5 5 4 4 3 1 1 3 4 5 4 3 3 3 3 3 4 4 4 4 4 3 3 3 6 4 2 1 2 3 1 1 1 1 2 2 1 1 1 1 3 3 1 3 2 3 3 5 3 3 5 6 6 4 4 5 6 7 7 6 5 7 9 10 9 6 6 6 5 6 7 7 7 8 9 9 10 10 11 12 11 9 8 9 10
0 2 5 6 4 1 1 1 2 3 2 3 3 3 3 3 3 3 2 3 3 3 3 3 2 4 5 3 1 2 2 4 4 2 1 0 1 2 2 1 0 1 4 3 1 2 3 4 3 2 2 4 3 3 4 5 6 6 6 7 7 6 5 4 5 6 6 7 9 11 9 6 6 6 6 7 8 8 9 11 12 11 11 11 11 11 12
4 6 6 4 1 2 3 2 3 3 2 3 4 3 2 2 3 2 2 2 3 2 1 2 2 3 4 4 2 1 1 3 3 2 2 1 0 1 2 1 0 2 4 2 1 0 3 3 2 1 2 3 3 3 5 7 6 6 5 5 6 7 7 7 7 8 7 6 8 11 11 11 10 9 6 4 5 5 8 10 7 4 6 11 12 13 13
5 6 5 3 3 3 2 2 3 3 3 3 3 2 2 3 3 2 1 2 2 1 1 2 2 0 1 4 4 1 1 1 2 2 2 0 1 1 3 1 1 3 4 1 1 1 2 2 2 1 2 3 4 5 5 6 5 5 5 6 7 8 9 9 9 9 9 7 6 7 8 7 7 7 6 5 5 4 5 6 5 5 7 13 14 15 15
6 5 5 5 5 4 3 3 3 3 3 2 2 2 4 3 2 1 2 2 1 1 1 2 2 0 0 3 3 1 2 0 1 2 2 0 1 1 3 1 1 3 3 1 1 0 2 2 1 2 3 4 4 4 4 5 5 5 6 6 7 8 9 9 9 8 8 8 7 8 9 9 6 6 7 6 4 3 4 4 6 9 11 14 17 16 16
6 5 5 6 5 4 3 3 3 2 1 2 1 2 3 3 1 0 2 2 2 1 2 2 2 2 1 1 1 2 2 1 1 2 2 0 1 2 3 2 2 2 3 2 1 1 2 2 1 2 2 1 2 3 4 4 5 6 7 8 9 10 11 11 10 10 9 9 8 8 9 9 7 7 7 8 10 10 8 7 7 9 10 12 16 17 16
6 5 4 3 3 2 1 1 2 1 1 2 2 2 3 3 1 1 2 1 1 1 2 2 2 3 2 3 3 1 1 1 1 2 1 0 1 2 3 3 3 2 2 2 1 1 1 1 1 2 1 1 3 4 5 5 5 6 7 9 10 11 11 11 11 11 10 10 9 9 9 9 8 7 7 8 11 14 11 9 9 9 10 12 18 20 18
6 4 2 1 2 0 1 1 2 2 2 4 4 2 2 2 1 1 2 2 0 3 4 4 3 2 2 2 3 2 1 1 1 1 1 2 3 3 2 2 2 2 2 3 3 2 1 0 1 1 2 4 5 6 6 6 7 7 8 9 9 10 10 10 10 10 10 10 9 8 8 9 9 7 6 6 8 11 11 9 9 11 10 11 17 20 19
5 3 1 1 2 2 1 2 3 3 3 4 3 0 1 2 1 1 3 4 2 3 4 3 1 2 1 0 1 2 1 1 1 1 1 2 3 2 2 2 1 1 2 4 4 3 1 1 1 2 4 5 5 5 6 7 7 7 8 8 9 10 10 10 10 10 10 10 10 9 8 9 8 8 8 8 8 9 11 11 10 11 11 10 13 16 17
5 3 2 2 2 3 4 5 5 4 2 1 1 1 0 1 2 3 3 3 3 1 0 0 1 1 1 1 2 2 2 1 2 1 1 3 3 2 1 2 1 1 1 4 4 3 2 2 3 4 5 5 6 7 7 7 8 9 10 9 10 11 12 11 10 11 11 11 11 10 9 9 8 7 8 9 9 8 9 9 9 9 11 13 13 16 15
4 3 3 2 2 4 5 4 3 4 2 2 2 1 1 0 0 1 1 2 3 3 2 1 1 2 1 1 3 3 1 1 1 1 1 2 3 1 1 3 2 2 2 2 2 1 1 3 4 5 5 6 7 8 8 8 9 10 11 10 10 12 12 11 10 11 11 11 11 10 10 10 10 9 8 9 9 7 6 5 6 6 9 14 15 16 15
4 3 3 3 3 5 5 3 2 2 2 1 1 2 2 1 1 2 2 2 3 3 2 1 1 3 2 1 3 4 2 0 1 1 1 2 3 2 2 4 5 3 2 1 2 3 3 3 5 6 7 8 8 8 8 10 10 11 12 13 13 13 13 13 13 13 12 11 10 10 9 10 11 10 10 10 9 6 3 3 4 4 4 8 9 11 12
5 4 4 5 5 6 6 5 3 2 2 3 3 2 2 2 2 1 2 3 3 2 1 0 1 2 2 1 2 3 2 1 1 2 3 3 3 3 4 5 5 4 3 4 4 5 4 5 5 6 7 7 8 9 10 11 12 12 14 15 16 15 13 13 14 16 14 11 10 10 9 10 11 10 10 13 12 8 4 4 6 6 6 6 5 5 6
4 4 5 6 7 7 6 5 3 2 3 4 4 3 3 3 1 0 2 4 3 1 1 1 1 1 2 2 2 2 2 1 1 3 4 4 3 3 5 5 4 4 4 4 4 4 4 5 5 5 6 7 9 10 11 12 13 14 15 15 15 15 13 11 12 15 15 12 12 12 10 9 9 8 9 14 17 13 7 6 4 5 9 12 10 6 6
4 4 4 6 7 8 7 4 1 2 1 3 4 3 4 3 2 2 4 4 1 1 1 3 2 1 2 2 2 2 2 2 2 4 4 3 2 3 4 4 3 2 1 1 3 4 5 6 5 5 6 7 8 10 12 13 15 15 15 14 13 13 13 11 11 12 12 11 10 11 10 9 10 9 6 8 13 14 8 5 7 7 9 12 13 10 10
Wind_Direction
350 352 351 352 353 356 358 358 360 359 355 354 350 336 301 259 285 81 98 199 226 266 277 244 291 36 23 320 32 1 318 341 0 3 333 321 294 248 240 336 2 26 151 191 214 222 60 34 12 57 91 57 30 4 322 316 291 292 329 336 355 356 272 277 306 173 172 128 135 207 251 291 282 236 223 234 222 219 235 288 326 268 130 109 118 126 134
350 352 351 352 353 356 359 359 360 2 2 357 346 326 303 303 333 88 105 208 246 273 308 308 61 69 4 288 110 101 338 354 348 2 16 350 337 357 22 46 353 1 16 321 273 111 95 84 333 3 108 93 27 4 356 345 349 25 12 350 343 327 260 244 252 219 203 180 171 220 228 252 248 204 209 249 252 287 317 334 342 301 209 135 129 116 136
350 351 351 351 353 356 359 359 359 359 360 359 349 306 302 319 307 286 146 209 238 285 5 347 36 79 58 26 68 167 116 37 324 328 353 351 344 347 9 6 312 2 50 298 343 65 167 210 210 256 86 95 48 19 12 356 12 31 357 329 325 319 304 290 253 232 208 191 235 235 206 214 246 229 229 258 279 309 321 318 295 287 306 96 122 126 136
351 352 351 352 353 356 359 359 356 356 355 354 345 297 292 302 273 280 181 199 228 53 14 335 15 39 264 58 12 334 39 84 252 294 320 359 342 329 359 333 291 242 214 239 197 195 224 152 173 215 147 120 97 29 22 18 15 359 337 331 332 313 314 14 66 315 336 68 306 294 203 191 222 230 236 258 276 276 274 291 309 8 43 69 120 139 144
352 353 352 352 353 357 0 360 355 351 349 349 342 291 274 292 312 353 2 329 353 95 16 1 37 17 338 21 352 337 3 39 110 77 334 346 310 303 347 317 301 334 284 252 189 204 210 155 196 220 150 106 100 31 340 56 20 333 325 340 341 309 290 174 158 249 294 355 331 320 333 284 227 212 210 222 258 276 274 255 266 14 58 89 138 145 147
352 355 353 351 355 359 1 2 358 349 340 342 335 294 292 321 10 27 356 321 348 32 13 9 45 36 9 359 330 352 23 11 29 63 5 315 287 292 335 300 313 6 350 344 20 322 237 169 188 161 114 121 147 170 182 88 36 300 321 12 352 304 282 242 193 207 218 302 317 294 319 333 300 165 146 219 235 257 268 255 265 311 74 135 154 149 145
352 355 354 351 356 1 2 4 3 353 341 334 320 295 339 345 29 28 337 320 5 31 1 340 52 44 10 3 8 7 31 41 36 25 350 345 46 339 325 346 353 350 5 36 27 3 20 339 303 53 34 277 195 166 137 119 181 279 342 33 16 307 305 317 309 268 229 245 285 280 292 334 11 110 121 328 263 248 251 256 270 348 109 138 150 144 138
353 354 355 353 357 3 4 6 8 3 354 343 337 26 11 348 19 4 322 346 9 338 276 279 120 96 290 313 42 12 15 40 51 27 356 4 47 348 315 30 15 339 359 74 91 74 67 326 314 7 357 325 317 2 35 86 107 314 328 13 51 274 326 360 331 308 283 240 235 259 274 298 307 259 217 241 271 266 266 259 260 111 120 138 142 135 131
354 355 355 354 357 5 7 9 11 13 11 1 358 30 9 348 5 354 321 344 345 295 303 287 270 93 82 39 35 22 34 34 11 30 22 4 12 12 354 4 350 331 14 63 71 65 45 2 8 16 3 354 359 21 25 356 344 345 312 333 341 276 273 309 265 272 273 246 215 224 247 258 267 262 245 222 240 247 248 243 237 150 135 143 147 141 136
354 355 356 354 357 6 10 11 13 18 23 16 358 12 10 354 357 353 322 305 251 257 244 70 358 48 64 53 16 7 56 52 349 356 65 40 16 10 353 343 327 299 74 63 35 13 356 356 358 345 336 344 340 2 49 323 314 325 346 11 307 286 291 284 252 248 263 249 218 216 241 238 244 251 239 225 231 240 232 226 215 130 143 151 154 145 137
354 355 356 355 357 7 12 14 15 17 21 17 347 351 13 357 340 345 322 300 304 272 331 46 46 61 75 78 47 22 63 77 41 353 29 65 49 17 359 359 348 359 44 31 352 321 309 314 313 306 305 299 288 285 280 271 267 281 313 317 274 270 280 284 281 267 268 257 218 193 233 234 243 256 232 218 214 226 230 197 100 89 139 144 139 141 145
355 355 356 355 357 7 14 17 19 17 18 14 352 348 11 0 333 331 328 313 325 350 60 56 43 41 53 53 48 38 46 70 64 20 22 47 39 28 38 33 7 17 17 344 305 280 275 268 258 262 264 259 259 258 257 257 247 234 248 265 271 265 240 266 272 259 270 272 216 201 230 238 8 28 5 228 207 214 203 115 93 86 124 131 134 144 152
356 355 355 354 356 5 12 17 21 20 17 15 4 357 8 3 345 337 343 324 321 8 42 73 71 51 50 57 52 40 41 51 48 43 49 48 39 44 46 35 19 19 347 309 292 283 273 240 221 250 249 234 242 245 240 236 228 223 227 235 254 265 238 245 251 240 254 255 222 217 234 97 76 58 43 45 81 109 111 102 92 94 126 137 143 150 156
356 355 354 353 355 1 8 13 18 19 18 12 1 356 9 10 360 353 349 325 323 10 22 69 89 63 50 57 56 165 137 84 55 64 46 6 35 61 49 27 20 1 322 312 293 268 267 231 206 226 211 205 220 220 220 218 203 220 242 226 230 255 268 267 245 223 234 246 232 209 151 172 169 131 114 105 86 98 130 129 118 123 137 142 148 154 155
355 355 353 351 353 358 4 7 9 13 17 14 3 360 15 14 359 341 334 318 316 352 32 34 39 40 49 58 348 274 204 145 175 133 89 322 4 60 44 17 16 341 304 309 287 266 275 267 246 226 200 217 220 177 167 179 161 205 248 239 212 229 251 290 275 226 214 243 248 222 213 235 209 163 157 202 220 137 143 157 151 151 152 150 150 155 157
354 354 353 351 351 356 3 5 4 4 10 15 13 5 8 10 0 345 337 320 308 333 51 40 3 334 329 56 359 299 295 332 339 131 161 204 134 90 87 18 359 325 309 295 267 269 268 254 257 258 220 220 235 169 157 173 158 168 231 238 222 222 228 253 272 252 222 231 249 230 223 263 156 140 141 161 123 86 101 188 187 167 164 165 164 166 173
352 353 354 350 349 355 3 6 3 1 6 12 11 2 357 1 359 349 333 318 309 339 51 32 335 304 336 17 40 314 301 331 344 301 246 91 80 143 139 245 259 269 317 298 261 254 260 249 254 260 223 181 191 201 165 186 187 173 192 223 223 218 217 215 231 249 243 231 237 234 221 90 112 125 124 114 101 101 160 217 190 167 169 173 175 177 190
350 352 353 349 348 354 2 7 3 358 2 6 1 352 346 354 358 352 335 319 312 336 51 31 347 341 9 333 337 355 330 325 315 271 213 159 240 171 66 330 275 176 162 287 272 259 263 259 260 269 268 90 78 246 178 221 231 192 173 198 218 212 212 216 223 236 240 235 237 236 118 110 132 135 127 120 122 154 203 211 149 156 159 166 182 175 157
348 349 351 349 348 351 358 5 4 355 357 2 357 346 338 357 5 359 344 334 323 328 42 38 355 357 15 314 297 333 323 309 307 288 269 223 20 356 313 275 278 231 224 271 276 271 266 263 266 280 282 37 15 269 243 227 254 210 172 191 214 206 204 214 224 236 243 241 237 222 132 120 143 137 126 131 161 186 158 94 108 143 147 155 169 127 93
345 346 349 349 346 348 353 358 0 356 354 355 354 344 326 343 7 5 357 351 323 311 8 30 354 355 16 331 316 333 309 275 276 283 295 351 39 294 268 218 186 268 257 258 275 278 271 275 293 297 275 272 14 298 264 234 246 229 186 207 218 200 210 219 213 222 237 238 234 223 164 149 157 147 129 112 269 123 109 98 93 102 114 134 126 95 82
342 343 347 347 344 345 348 350 354 355 350 350 351 340 323 333 11 5 351 339 308 292 359 8 344 334 338 345 352 344 321 324 338 322 318 355 78 282 297 345 238 291 327 314 288 292 297 300 317 331 296 302 345 300 275 257 238 199 191 235 240 212 229 241 220 230 243 234 231 229 146 140 142 143 120 92 97 112 114 111 107 103 98 98 103 99 86
340 341 344 344 343 341 340 341 345 344 337 343 346 326 316 339 10 352 335 320 283 273 297 313 314 310 311 326 343 327 317 338 0 346 310 310 343 274 303 299 262 298 352 336 291 293 323 313 314 314 308 315 313 292 293 282 251 179 175 218 248 233 245 346 339 316 324 73 98 106 149 133 108 96 97 104 112 113 99 106 124 130 131 129 120 114 103
336 337 340 341 339 337 333 332 335 334 326 331 331 314 317 332 348 341 325 298 265 269 278 278 271 259 256 250 233 289 302 309 315 308 294 294 287 272 315 346 348 323 342 341 318 313 317 315 307 297 305 319 306 309 311 288 281 313 173 211 228 242 52 37 312 286 112 120 118 117 136 131 114 112 112 110 115 114 106 126 137 121 120 131 127 124 124
331 334 337 337 335 332 326 323 324 324 320 310 302 317 330 333 341 340 326 288 267 285 271 251 246 228 126 122 163 265 268 254 255 255 206 259 271 287 356 6 1 338 339 349 345 321 303 304 295 282 298 332 331 318 320 287 306 347 347 260 234 215 203 226 249 233 176 167 160 155 161 149 130 135 137 124 114 111 114 143 121 109 109 103 97 113 126
329 332 332 332 332 327 321 319 317 313 303 283 280 333 336 328 333 336 324 297 291 309 295 256 197 72 44 12 294 271 288 258 232 231 207 217 249 281 318 8 352 329 318 318 315 300 286 291 291 278 290 341 358 327 333 321 311 333 339 326 310 285 252 230 220 220 218 171 145 150 159 155 154 164 157 141 130 118 101 87 96 106 109 104 101 115 135
328 329 329 330 329 323 319 317 311 302 280 270 268 345 324 317 325 330 319 308 296 282 283 303 299 235 301 315 313 352 353 321 260 240 226 221 233 252 250 178 173 270 266 275 294 302 291 283 293 295 291 326 350 313 299 265 270 285 291 319 337 310 293 285 251 223 215 172 145 147 150 168 190 206 195 166 153 143 129 119 119 116 112 114 121 132 155
326 327 329 329 326 321 322 319 309 304 298 279 276 330 304 306 322 334 332 331 318 262 246 287 267 236 293 326 352 340 299 277 257 239 230 230 233 243 249 240 245 265 285 316 298 292 290 285 290 302 302 312 312 286 279 271 271 275 271 295 8 324 296 309 309 251 232 326 12 170 190 208 203 211 216 186 154 151 153 152 158 164 156 150 153 152 142
326 327 328 329 326 323 325 320 311 312 304 286 326 347 295 286 298 319 343 344 326 304 302 298 288 300 310 307 288 247 244 262 263 246 235 233 231 234 245 255 263 297 11 355 299 279 281 284 290 325 321 309 289 268 266 265 261 262 256 232 65 346 270 301 316 283 243 344 356 358 329 316 331 222 226 186 139 149 156 150 158 178 173 166 180 183 165
326 327 328 328 325 323 323 320 319 323 320 321 346 313 271 246 251 286 2 349 319 306 296 284 279 285 289 274 213 194 200 277 272 264 266 277 273 276 307 330 353 63 78 348 302 295 294 294 303 115 280 290 288 276 268 262 257 256 216 150 175 323 311 302 306 297 240 358 9 0 336 324 7 310 243 177 154 168 161 149 158 179 182 179 183 186 186
327 329 329 325 321 319 317 318 321 342 12 8 320 282 246 190 136 8 9 345 322 306 286 287 294 282 271 271 246 188 191 238 279 307 2 12 7 22 32 22 21 90 100 27 328 320 312 309 304 252 224 228 266 275 269 267 266 256 125 141 207 299 311 294 290 291 276 183 37 338 307 290 285 263 214 179 176 183 175 169 174 187 209 211 183 165 179
330 329 325 323 322 316 315 321 340 91 59 9 308 285 264 131 74 17 3 347 319 295 273 280 290 270 252 259 241 234 246 247 36 35 38 39 33 31 20 332 15 113 125 269 232 237 254 237 226 252 230 206 239 263 262 266 270 256 166 171 213 241 265 275 277 275 265 236 200 258 280 287 293 260 215 184 173 172 179 195 184 169 187 224 228 203 200
331 331 326 325 322 309 304 300 155 141 103 335 293 295 330 336 325 327 327 324 299 279 273 279 275 261 258 245 228 231 237 189 124 66 10 316 1 352 291 268 284 67 36 293 260 251 260 233 215 229 224 206 227 256 256 254 262 260 239 223 225 231 245 265 272 276 277 263 232 231 249 256 269 265 239 196 177 176 186 205 188 149 151 184 224 269 252
335 334 329 327 333 336 91 145 160 152 136 268 256 243 286 316 309 297 316 308 277 262 263 279 276 256 214 217 236 257 267 229 190 197 228 224 263 305 288 268 280 69 66 287 268 229 183 234 238 229 179 189 226 252 254 249 256 260 247 227 214 210 221 249 260 261 265 257 241 232 231 226 235 255 254 230 202 194 197 207 196 157 152 179 209 279 292
337 337 338 122 130 110 102 115 129 134 178 262 232 179 232 320 326 353 8 324 280 260 250 262 273 265 191 169 208 262 267 261 222 260 229 183 219 271 304 302 272 244 192 262 282 249 211 235 249 219 163 201 238 254 262 260 258 254 243 226 212 217 225 240 248 246 248 256 254 243 230 220 218 230 240 234 212 197 195 205 202 172 157 176 195 211 228
336 336 152 157 156 143 110 113 204 249 265 268 149 96 334 301 272 255 336 334 287 266 238 234 256 281 284 221 174 236 255 247 192 252 241 167 181 270 279 188 238 255 255 274 257 241 220 185 218 220 195 204 219 226 247 260 259 246 238 233 232 244 241 234 242 247 236 237 247 246 238 235 232 229 226 220 210 199 195 203 204 184 170 184 198 202 209
327 246 184 175 180 235 280 271 247 242 266 318 12 336 311 298 267 261 282 279 267 272 298 288 276 297 306 305 90 148 255 251 212 240 238 139 197 258 241 238 251 188 168 242 261 260 267 96 230 244 234 224 235 251 279 298 317 321 285 287 327 309 289 267 257 257 242 229 240 248 241 240 244 240 232 226 218 208 202 207 211 203 193 196 204 204 202
280 211 196 199 246 267 263 250 215 146 354 349 339 314 299 288 263 253 249 241 232 226 261 294 299 300 302 318 58 104 270 270 116 303 311 347 304 265 240 275 308 214 217 249 240 219 265 271 256 255 256 264 349 2 2 359 7 12 358 9 24 10 348 340 327 308 288 256 245 247 247 251 253 245 237 231 222 214 210 210 212 215 213 208 208 210 205
246 197 211 238 264 270 254 236 27 10 344 329 321 298 252 230 230 231 223 208 187 186 219 269 294 285 287 304 36 51 311 309 316 326 348 325 306 302 285 287 316 258 276 291 139 152 224 264 249 256 287 27 48 37 26 27 43 38 18 17 28 26 6 358 350 334 316 298 287 280 265 254 253 248 240 235 229 222 219 217 214 215 218 216 211 213 211
228 218 237 243 253 301 41 22 341 331 309 279 269 257 230 221 226 227 206 189 183 200 220 237 255 273 290 309 50 77 357 313 305 329 16 28 295 320 323 328 50 256 277 290 129 167 246 257 227 224 359 30 37 22 21 39 54 49 28 15 14 10 1 2 358 345 335 332 324 316 308 297 286 276 255 241 235 225 220 221 216 210 212 213 209 212 217
242 253 257 256 307 30 51 31 342 318 279 247 243 238 231 233 235 232 205 201 223 244 237 229 252 298 336 332 318 22 4 309 304 330 353 3 68 316 298 300 61 273 278 294 70 175 274 291 304 348 53 54 42 24 25 32 40 41 29 8 353 351 349 347 346 345 348 353 340 327 328 339 341 334 321 298 276 246 226 217 198 180 226 230 214 208 216
266 269 279 320 355 355 348 328 305 280 261 252 240 233 242 237 223 224 247 240 236 245 247 237 240 267 350 296 283 281 91 291 294 310 306 277 145 275 286 277 183 275 293 326 109 186 258 297 320 358 62 57 46 37 27 18 11 7 2 351 341 340 340 336 337 341 344 347 342 329 326 334 333 321 318 327 333 311 264 232 179 163 238 253 237 215 211
311 318 313 303 301 296 278 264 255 247 252 263 253 250 255 246 206 213 270 257 214 203 236 241 246 237 260 281 299 9 74 39 293 290 280 261 134 270 292 303 237 273 306 355 127 260 310 308 339 58 47 25 20 21 15 8 358 347 345 344 337 333 332 329 328 331 331 330 328 325 326 329 323 302 290 283 278 281 273 246 205 189 210 242 248 228 207
304 314 310 288 267 250 249 247 232 216 258 266 250 260 261 251 226 294 256 207 168 202 223 209 221 243 210 145 354 353 10 19 283 267 264 232 130 243 273 289 272 286 327 343 347 31 359 330 1 72 82 316 342 9 6 358 347 334 332 336 334 332 333 331 326 324 322 321 321 324 327 330 330 320 305 285 263 248 233 221 218 205 203 231 251 240 210
289 274 274 274 250 217 236 256 221 191 258 248 233 241 248 234 208 265 262 203 129 218 239 215 221 248 227 160 166 226 257 172 242 268 265 221 239 254 270 295 311 331 347 331 310 79 75 11 9 66 88 341 348 357 352 348 347 338 334 337 338 335 331 329 327 325 323 323 326 330 330 328 332 338 333 306 279 264 246 218 207 204 201 222 243 237 212
271 237 226 293 304 310 24 269 227 211 231 234 228 237 283 306 12 327 283 295 132 178 204 214 229 263 264 173 172 204 212 166 197 245 247 256 280 291 299 314 338 348 328 309 316 8 59 115 261 335 5 354 347 347 352 355 352 344 337 337 339 335 332 332 333 330 325 323 324 326 324 320 320 322 322 312 297 289 281 256 220 200 192 216 240 232 203
266 244 228 288 282 263 252 251 240 231 236 240 233 218 4 336 328 197 250 276 270 181 180 193 227 263 277 244 199 219 213 201 224 245 259 276 291 312 329 334 1 353 303 312 337 5 23 182 160 40 16 358 345 347 354 352 342 336 334 335 333 329 327 328 328 323 320 321 323 322 317 312 311 312 311 307 300 297 293 278 248 213 189 199 239 238 205
264 265 268 273 268 242 225 227 237 248 266 347 61 83 100 247 224 201 221 269 294 305 319 283 262 254 257 263 255 241 200 202 272 293 306 297 302 328 347 318 326 66 334 332 349 2 350 10 40 38 18 357 347 348 349 342 335 334 332 329 324 320 320 323 325 320 315 316 316 314 311 306 302 303 304 301 297 297 295 281 261 232 195 188 221 243 218
278 279 262 251 251 244 238 238 260 287 321 42 86 174 226 327 301 262 270 287 293 297 313 343 314 289 256 234 267 275 233 166 275 285 292 297 300 313 327 310 330 54 58 337 335 40 42 26 25 20 9 1 357 352 345 338 335 334 328 321 317 316 317 317 315 312 312 312 309 308 313 314 308 303 301 298 298 303 302 274 250 237 199 184 204 233 224
284 291 267 253 259 266 270 288 321 306 292 288 246 241 251 269 259 265 283 281 274 279 296 357 322 305 302 309 307 304 303 33 338 331 333 308 304 307 320 324 340 18 53 2 18 47 45 25 14 11 8 4 359 354 347 342 341 341 335 328 322 320 320 320 317 312 310 311 311 315 324 321 312 306 304 297 286 284 294 256 226 219 184 165 186 223 222
263 262 253 254 265 277 288 305 326 330 318 314 313 306 294 278 258 232 244 257 265 285 316 281 282 303 306 299 299 302 315 2 343 311 310 323 332 337 331 332 344 9 27 31 34 35 26 16 11 9 6 5 5 4 359 352 349 346 339 332 328 327 328 333 328 316 308 308 316 319 317 311 306 309 315 307 291 270 239 221 222 211 182 163 175 218 205
256 249 246 247 251 262 279 299 332 353 310 298 304 314 306 297 302 238 255 263 274 346 354 287 286 300 287 278 288 309 320 309 285 304 330 355 1 343 334 344 7 28 34 38 39 36 33 32 23 9 4 7 11 8 1 355 354 351 344 339 337 334 330 330 324 313 309 316 323 316 307 306 307 308 314 310 298 278 234 189 198 206 188 183 194 218 197
245 254 264 263 257 261 273 292 47 96 269 291 304 305 297 305 339 327 291 282 290 60 316 302 292 265 266 287 304 295 280 274 297 331 354 18 33 359 351 1 19 23 11 44 56 55 57 53 34 17 13 12 9 5 1 360 0 358 351 345 344 339 333 329 324 315 314 320 320 309 305 309 306 296 302 316 304 289 263 186 171 184 184 176 176 184 189